Tracking 31027 objects as of 19-Jul-2025
HD Live streaming from Space Station
objects crossing your sky now

IRS P2 R/B

Track IRS P2 R/B now!
10-day predictions


NORAD ID: 23324
Int'l Code: 1994-068B
Perigee: 799.9 km
Apogee: 883.2 km
Inclination: 98.9 °
Period: 101.6 minutes
Semi major axis: 7212 km
RCS: 6.3284 m2 (large)
Launch date: October 15, 1994
Source: India (IND)
Launch site: SRIHARIKOTA (SRI)

Note: This is a ROCKET BODY
Your satellite tracking list
SPACEBEE-134
Track 1 satellite(s)




NASA's NSSDC Master Catalog

Two Line Element Set (TLE):
1 23324U 94068B   25199.46142314  .00000011  00000-0  26884-4 0  9996
2 23324  98.8853 269.3638 0057765 145.6469 214.8462 14.17330596590267
Source of the keplerian elements: AFSPC